Orbital Elements at Epoch 2459200.5 (2020-Dec-17.0) TDB
Reference: JPL 17 (heliocentric ecliptic J2000)
Element | Value | Uncertainty (1-sigma) | Units |
e | .2215784284470381 | 3.9412e-08 | |
a | 2.346000440637139 | 7.5143e-09 | au |
q | 1.826177349864703 | 9.2955e-08 | au |
i | 5.155768668992628 | 4.418e-06 | deg |
node | 329.0964825066733 | 4.4262e-05 | deg |
peri | 10.24963068848135 | 4.5064e-05 | deg |
M | 341.432271948533 | 9.9373e-06 | deg |
tp | 2459268.193477793906 (2021-Feb-22.69347779) | 3.6391e-05 | TDB |
period | 1312.473552943961 3.59 | 6.3059e-06 1.726e-08 | d yr |
n | .2742912412920606 | 1.3178e-09 | deg/d |
Q | 2.865823531409576 | 9.1793e-09 | au |
|
| | Orbit Determination Parameters
Additional Information
|